Date,TemperatureHighF,TemperatureAvgF,TemperatureLowF,DewpointHighF,DewpointAvgF,DewpointLowF,HumidityHigh,HumidityAvg,HumidityLow,PressureMaxIn,PressureMinIn,WindSpeedMaxMPH,WindSpeedAvgMPH,GustSpeedMaxMPH,PrecipitationSumIn
2012-1-1,65.2,51.4,37.8,56.4,43.5,32.8,88,75,51,30.04,29.80,9,1,9,0.00
2012-1-2,51.1,42.7,32.0,34.1,24.0,12.4,70,48,37,30.00,29.83,10,1,10,0.01
2012-1-3,36.7,31.2,26.6,15.8,13.1,11.4,55,47,36,30.24,30.00,10,1,10,0.00
2012-1-4,45.2,33.2,23.2,22.8,18.2,13.0,70,55,39,30.28,29.98,7,1,7,0.00
2012-1-5,59.2,43.0,31.0,35.2,27.8,19.9,72,56,37,30.04,29.93,6,0,6,0.00
2012-1-6,63.2,45.7,32.9,40.0,32.5,26.2,79,62,41,30.00,29.88,7,0,7,0.00
2012-1-7,68.8,51.8,38.2,52.7,42.1,31.2,82,70,54,29.97,29.86,6,0,6,0.02
2012-1-8,57.6,51.6,44.8,48.9,45.2,40.0,89,79,66,30.14,29.97,3,0,3,0.04
2012-1-9,51.5,49.7,48.6,46.2,45.0,43.8,86,84,81,30.11,29.95,4,0,4,0.01
2012-1-10,57.6,53.4,50.0,49.3,47.5,45.5,88,81,73,30.02,29.87,4,0,4,0.01
2012-1-11,59.4,53.9,51.5,57.1,50.6,46.5,93,89,82,29.87,29.42,8,1,8,0.51
2012-1-12,58.3,53.1,44.6,49.7,46.6,38.4,89,79,67,29.59,29.45,10,2,10,0.00
2012-1-13,45.4,40.0,31.9,34.3,25.8,21.8,66,57,50,29.98,29.55,9,1,9,0.00
2012-1-14,46.8,36.8,27.4,27.8,24.8,20.4,78,63,45,30.12,29.97,6,0,6,0.00
2012-1-15,49.3,39.4,31.5,33.0,27.8,24.7,79,64,45,30.41,29.99,6,0,6,0.00
2012-1-16,56.2,41.1,32.0,42.1,31.2,25.4,77,68,56,30.47,30.23,5,0,5,0.00
2012-1-17,64.3,53.5,42.5,54.0,44.8,35.1,82,72,69,30.23,29.87,9,1,9,0.44
2012-1-18,57.2,44.3,40.3,52.7,32.3,26.6,85,63,51,30.00,29.80,6,1,6,0.37
2012-1-19,49.0,40.8,32.8,33.9,28.9,23.7,74,62,55,30.12,29.98,7,1,7,0.00
2012-1-20,50.2,44.2,35.3,43.2,37.3,28.6,86,77,64,30.06,29.96,4,0,4,0.21
2012-1-21,51.5,48.7,47.2,48.6,45.2,43.2,90,88,86,29.96,29.81,2,0,2,0.19
2012-1-22,51.8,41.4,38.5,48.7,36.5,33.1,89,83,80,30.24,30.00,7,1,9,0.00
2012-1-23,48.6,42.7,38.7,45.9,39.8,35.6,91,89,87,30.19,29.91,6,0,6,0.08
2012-1-24,59.4,51.3,43.4,52.6,47.2,39.2,91,86,77,30.13,29.93,4,0,4,0.00
2012-1-25,62.8,48.6,37.4,46.4,40.6,34.0,92,75,54,30.22,30.07,6,0,6,0.00
2012-1-26,74.9,57.1,46.6,69.5,52.2,41.1,91,84,76,30.08,29.62,11,1,11,0.04
2012-1-27,66.1,59.8,45.7,59.9,51.0,37.3,88,74,52,29.93,29.52,11,2,11,0.13
2012-1-28,61.2,50.8,36.7,45.2,38.5,30.1,86,64,50,30.13,29.92,9,1,9,0.00
2012-1-29,53.6,43.8,33.1,36.0,27.7,24.8,82,54,36,30.29,30.13,5,0,5,0.02
2012-1-30,60.5,44.5,31.7,35.2,29.5,24.1,78,58,34,30.34,30.18,5,0,5,0.00
2012-1-31,65.9,49.0,34.6,39.4,33.8,27.7,80,58,37,30.30,30.17,8,1,8,0.00
2012-2-1,67.0,54.7,44.5,51.5,44.3,34.0,83,68,57,30.18,29.98,9,1,9,0.03
2012-2-2,68.8,59.9,52.9,55.6,47.1,35.3,87,65,42,30.22,29.94,8,1,8,0.01
2012-2-3,59.6,50.2,39.8,38.1,35.6,32.1,76,58,41,30.37,30.21,10,1,10,0.00
2012-2-4,55.4,50.0,45.4,50.0,43.8,37.2,86,79,69,30.26,29.94,2,0,2,0.04
2012-2-5,57.4,51.7,44.1,53.9,47.7,38.4,90,86,81,30.12,29.85,11,1,11,0.00
2012-2-6,48.4,43.7,38.5,39.6,37.0,32.9,82,77,70,30.19,30.04,5,1,5,0.00
2012-2-7,58.1,44.5,34.0,40.4,34.6,29.6,89,70,44,30.09,30.01,5,0,7,0.00
2012-2-8,53.1,44.1,36.0,42.9,36.2,30.4,83,74,61,30.08,29.99,5,0,8,0.00
2012-2-9,50.6,41.2,32.6,35.8,31.9,27.3,85,70,55,30.20,30.08,7,0,7,0.00
2012-2-10,50.6,42.2,33.8,42.0,35.6,28.4,85,77,71,30.09,29.77,5,0,5,0.00
2012-2-11,51.1,44.9,40.0,40.3,36.6,26.6,85,74,44,29.78,29.67,11,1,11,0.00
2012-2-12,44.8,33.4,23.6,20.4,14.7,8.4,56,46,35,30.20,30.03,7,1,7,0.00
2012-2-13,53.1,38.8,25.6,27.1,22.5,16.9,73,54,36,30.19,30.01,6,0,6,0.00
2012-2-14,56.5,47.6,36.0,40.6,34.7,25.6,71,61,51,30.02,29.91,8,1,8,0.00
2012-2-15,64.4,50.2,35.3,43.3,37.0,29.1,85,63,38,30.16,29.99,6,1,6,0.00
2012-2-16,55.1,51.6,45.7,51.0,44.7,37.6,87,78,64,30.14,29.91,2,0,2,0.00
2012-2-17,62.3,53.3,47.2,48.4,45.6,41.7,88,76,57,30.03,29.94,3,0,3,0.00
2012-2-18,66.2,53.9,41.8,45.4,42.1,36.9,85,66,46,30.02,29.84,4,0,4,0.00
2012-2-19,54.0,45.5,36.0,46.3,40.4,31.5,85,82,73,29.87,29.62,6,2,6,0.00
2012-2-20,51.5,41.6,33.8,37.5,32.5,29.4,86,72,47,30.22,29.86,4,1,4,0.00
2012-2-21,58.9,44.6,32.9,45.0,36.0,27.7,84,72,59,30.21,29.92,5,1,5,0.00
2012-2-22,68.8,55.6,40.3,54.7,46.4,35.6,88,72,57,29.87,29.50,4,1,4,0.00
2012-2-23,75.4,62.6,48.2,61.2,53.0,43.3,89,72,55,29.60,29.50,6,1,6,0.00
2012-2-24,72.9,65.8,49.3,64.5,55.4,29.4,80,70,45,29.82,29.45,8,1,8,0.00
2012-2-25,56.5,47.3,38.3,29.4,26.3,21.9,62,45,32,30.20,29.84,2,0,2,0.00
2012-2-26,55.8,42.7,31.1,30.4,26.2,21.4,71,53,37,30.38,30.21,3,0,3,0.00
2012-2-27,57.2,48.7,38.5,50.4,41.0,28.8,82,75,65,30.34,30.21,2,0,2,0.00
2012-2-28,68.8,57.0,47.2,48.2,44.0,41.3,86,65,37,30.33,30.19,7,1,7,0.00
2012-2-29,68.8,62.3,56.2,59.8,53.9,42.8,82,74,58,30.13,29.77,5,1,5,0.00
2012-3-1,81.2,70.9,64.1,63.8,55.8,43.7,85,62,32,29.78,29.67,6,0,6,0.00
2012-3-2,64.1,57.1,51.5,58.5,50.8,43.3,88,79,71,29.87,29.58,6,1,7,0.00
2012-3-3,64.8,60.3,54.4,59.5,52.9,38.0,90,77,56,29.68,29.48,8,1,8,0.00
2012-3-4,56.0,49.9,37.8,39.1,31.3,21.9,66,50,32,29.92,29.57,10,1,10,0.00
2012-3-5,56.0,45.9,36.5,35.1,27.1,21.4,68,50,31,30.39,29.81,12,1,12,0.00
2012-3-6,59.4,45.4,32.0,41.1,27.0,22.1,70,50,30,30.54,30.38,7,1,7,0.00
2012-3-7,71.1,54.6,39.2,50.2,41.4,29.8,76,62,46,30.51,30.33,10,1,10,0.00
2012-3-8,74.2,61.3,49.7,57.8,50.5,42.8,84,69,52,30.33,30.00,8,1,8,0.00
2012-3-9,64.6,59.9,46.1,56.3,47.0,35.3,87,64,39,30.21,29.97,9,1,9,0.33
2012-3-10,70.6,51.0,42.1,42.6,32.1,27.6,73,51,30,30.40,30.20,8,1,14,0.12
2012-3-11,72.5,49.3,37.4,44.7,35.1,30.4,79,61,33,30.47,30.32,6,0,6,0.00
2012-3-12,72.5,59.0,45.7,53.6,46.4,38.2,81,64,48,30.33,30.15,8,1,8,0.00
2012-3-13,82.3,68.0,59.6,65.4,57.5,50.2,82,70,54,30.16,30.02,6,1,6,0.02
2012-3-14,82.8,69.4,58.3,62.3,55.6,51.8,87,64,39,30.16,30.06,6,1,6,0.00
2012-3-15,85.9,69.2,54.4,62.4,54.0,48.2,83,61,34,30.18,30.07,3,1,3,0.00
2012-3-16,83.5,69.2,58.3,60.8,56.4,51.8,83,66,39,30.14,30.00,3,1,3,0.18
2012-3-17,81.4,69.5,59.2,63.1,58.5,54.7,87,70,46,30.15,30.03,2,1,2,0.33
2012-3-18,74.7,66.1,59.0,63.9,59.5,54.7,89,80,65,30.22,30.09,3,0,3,0.00
2012-3-19,84.1,70.0,59.8,67.1,59.9,55.3,90,73,44,30.14,29.99,5,1,5,0.00
2012-3-20,85.7,72.1,60.1,64.5,59.9,55.0,87,67,46,30.13,30.01,3,0,3,0.01
2012-3-21,81.2,71.1,61.2,64.0,59.9,55.7,85,69,50,30.20,30.08,4,1,4,0.00
2012-3-22,80.1,69.9,60.8,64.9,60.2,55.9,87,72,54,30.18,30.04,3,0,3,0.00
2012-3-23,83.2,69.4,60.8,66.7,61.3,55.7,87,76,55,30.06,29.88,4,1,4,0.14
2012-3-24,80.5,67.1,61.7,67.5,61.2,57.1,90,82,54,29.89,29.64,8,1,8,0.60
2012-3-25,67.1,62.1,56.5,58.1,54.4,52.0,87,76,60,29.75,29.60,10,1,10,0.03
2012-3-26,80.1,63.3,54.2,54.9,51.6,46.0,87,69,35,29.95,29.73,10,1,10,0.00
2012-3-27,67.1,58.7,50.9,50.0,37.6,31.8,64,46,33,30.24,29.95,4,0,4,0.00
2012-3-28,76.9,67.1,51.3,61.3,54.8,40.7,77,65,57,30.14,29.81,6,1,6,0.00
2012-3-29,86.8,72.3,60.1,62.1,55.8,52.2,80,59,34,29.85,29.75,6,0,6,0.00
2012-3-30,80.3,67.3,56.9,60.0,55.0,46.1,80,66,49,29.94,29.77,6,1,6,0.12
2012-3-31,78.1,69.1,63.9,66.3,61.7,58.5,88,78,63,29.80,29.64,7,0,7,0.23
2012-4-1,76.7,65.6,55.4,64.1,57.0,50.3,86,74,56,29.82,29.65,4,0,5,0.03
2012-4-2,87.3,68.1,57.1,69.2,59.5,52.4,91,76,51,29.83,29.60,7,0,7,0.07
2012-4-3,80.5,69.0,58.3,65.2,59.1,53.0,84,72,56,29.94,29.78,6,0,6,0.03
2012-4-4,86.0,72.2,61.2,67.2,61.1,56.7,88,70,45,29.85,29.54,5,0,5,0.01
2012-4-5,72.0,65.2,55.6,61.7,55.7,49.8,84,72,53,29.70,29.56,11,1,11,0.38
2012-4-6,66.8,55.9,47.9,50.0,45.5,42.5,85,70,44,30.00,29.70,9,1,11,0.23
2012-4-7,71.3,59.9,43.6,50.6,42.6,38.1,85,56,34,30.18,30.00,5,0,5,0.00
2012-4-8,79.7,62.9,46.4,52.9,45.3,39.8,84,56,33,30.06,29.86,4,0,4,0.00
2012-4-9,77.8,65.5,53.6,47.6,43.8,39.6,69,48,28,30.00,29.78,6,1,6,0.00
2012-4-10,77.0,62.9,48.8,50.0,44.6,39.6,75,53,33,29.90,29.71,8,0,8,0.00
2012-4-11,66.6,58.5,48.1,44.4,32.9,24.3,61,39,29,30.07,29.75,10,1,10,0.00
2012-4-12,66.4,52.8,39.8,36.5,31.6,23.0,69,46,29,30.15,30.02,6,0,6,0.00
2012-4-13,48.1,45.4,43.2,35.7,35.2,34.3,71,67,61,30.07,30.04,0,0,0,0.00
2012-4-14,65.5,51.4,47.0,51.0,42.0,39.2,78,71,55,30.25,30.15,2,0,2,0.00
2012-4-22,60.5,55.9,50.8,55.0,50.7,45.5,86,83,80,29.53,29.42,8,1,8,0.05
2012-4-23,57.8,50.2,43.2,45.7,40.5,35.8,85,70,51,29.66,29.47,7,0,7,0.01
2012-4-24,68.4,53.0,39.1,44.3,38.1,33.1,83,60,34,29.74,29.64,8,0,8,0.00
2012-4-25,70.6,59.9,52.6,58.0,50.5,40.6,83,71,60,29.89,29.74,1,0,1,0.08
2012-4-26,71.8,66.5,60.7,65.0,59.9,55.0,84,79,74,29.79,29.70,5,0,5,0.05
2012-4-27,82.3,71.2,59.9,67.9,62.1,55.6,90,74,51,29.97,29.77,4,0,4,0.15
2012-4-28,68.4,63.6,61.9,62.7,55.8,52.4,84,76,70,30.07,29.96,6,0,6,0.03
2012-4-29,82.8,69.7,59.8,69.0,61.4,54.0,86,76,59,30.09,30.00,5,0,5,0.00
2012-4-30,86.4,74.9,64.8,70.0,65.3,60.2,88,73,54,30.13,29.99,6,1,6,0.00
2012-5-1,88.4,78.0,68.2,72.8,66.7,61.1,82,69,57,30.09,29.95,5,1,5,0.00
2012-5-2,90.9,73.3,67.7,69.8,63.6,61.8,84,72,50,30.07,29.99,2,0,2,0.02
2012-5-3,90.0,77.1,66.4,70.5,65.5,60.9,85,69,47,30.09,29.98,3,0,3,0.00
2012-5-4,86.6,75.7,66.4,72.7,65.2,61.3,87,71,51,30.00,29.85,5,0,5,0.00
2012-5-5,89.6,76.7,66.1,72.3,65.6,60.8,86,70,53,29.87,29.74,5,0,5,0.00
2012-5-6,85.9,73.9,68.6,68.5,62.9,60.1,77,69,54,29.94,29.81,8,1,8,0.00
2012-5-7,88.9,71.9,64.3,68.5,61.6,57.9,84,71,50,29.97,29.85,5,0,5,0.00
2012-5-8,77.8,71.3,66.6,70.4,64.6,60.1,87,80,70,29.91,29.74,5,0,5,0.64
2012-5-9,70.9,66.9,62.3,67.9,63.3,58.2,91,88,85,29.80,29.61,4,0,4,0.64
2012-5-10,80.8,67.0,54.0,62.3,55.7,50.5,91,69,50,29.90,29.68,9,0,9,0.00
2012-5-11,77.4,65.7,54.4,52.9,49.7,46.5,81,59,37,30.13,29.89,8,0,8,0.00
2012-5-12,75.8,65.1,54.0,63.2,55.3,46.8,81,71,59,30.25,30.12,3,0,3,0.00
2012-5-13,72.2,64.9,58.3,65.0,59.5,52.8,88,83,75,30.16,30.02,5,0,5,0.39
2012-5-14,79.7,69.2,64.4,72.2,65.1,61.2,93,87,76,30.03,29.81,5,0,5,0.33
2012-5-15,79.2,71.8,64.6,71.2,66.0,61.2,93,82,71,29.92,29.82,4,0,4,0.16
2012-5-16,85.7,72.9,65.2,72.4,65.1,61.0,90,77,61,29.89,29.79,6,0,6,0.14
2012-5-17,83.2,72.3,63.7,68.9,63.3,59.9,91,75,52,29.94,29.83,9,0,9,0.11
2012-5-18,77.4,71.3,66.6,62.2,60.2,55.3,80,69,55,30.02,29.93,8,1,8,0.01
2012-5-19,77.4,70.1,62.1,58.2,55.2,52.8,73,60,48,30.07,29.97,7,0,7,0.01
2012-5-20,87.5,72.3,55.8,63.8,55.8,50.1,85,59,38,30.05,29.94,8,1,8,0.11
2012-5-21,90.7,74.6,64.6,69.4,61.2,55.4,82,64,50,29.97,29.78,5,0,5,0.00
2012-5-22,83.5,75.3,64.8,69.5,64.8,59.9,86,70,59,29.83,29.69,4,0,4,0.84
2012-5-23,83.9,71.2,63.4,69.3,63.4,58.4,89,77,57,29.85,29.74,4,0,4,0.11
2012-5-24,87.7,75.7,66.6,72.5,65.1,61.1,85,71,50,29.95,29.83,5,0,5,0.00
2012-5-25,90.9,79.1,67.5,73.2,66.8,62.0,86,67,49,30.04,29.95,5,0,5,0.00
2012-5-26,90.4,80.0,68.8,73.2,67.8,63.1,85,68,53,30.07,29.97,7,0,7,0.01
2012-5-27,87.7,79.0,69.1,70.6,67.4,62.9,82,68,55,30.05,29.96,6,1,6,0.00
2012-5-28,89.5,79.4,71.5,73.7,69.1,65.3,86,71,56,30.00,29.90,5,0,5,0.00
2012-5-29,85.0,77.6,71.6,75.0,70.2,66.2,87,78,69,29.94,29.77,5,0,5,0.01
2012-5-30,87.1,77.8,70.9,71.6,66.8,60.7,87,71,49,29.78,29.67,6,0,6,0.01
2012-5-31,91.3,78.9,64.8,71.0,64.7,59.3,87,63,45,29.82,29.72,4,0,4,0.00
2012-6-1,85.1,77.1,69.5,72.2,67.9,63.2,82,74,60,29.78,29.63,4,0,4,0.27
2012-6-2,77.6,70.1,61.6,63.4,56.9,53.4,81,64,47,29.85,29.72,5,0,5,0.00
2012-6-3,94.0,74.2,58.9,65.0,57.8,52.0,84,59,38,29.90,29.76,4,0,4,0.00
2012-6-4,81.2,71.7,63.4,68.2,61.5,55.6,82,71,59,29.77,29.61,3,0,3,0.00
2012-6-5,75.2,70.1,64.6,64.5,60.4,57.2,84,72,62,29.79,29.64,5,0,5,0.01
2012-6-6,74.0,64.9,58.9,64.5,57.9,54.0,87,78,69,29.93,29.78,6,1,6,0.04
2012-6-7,81.4,73.5,61.9,66.0,61.6,57.3,88,67,53,29.97,29.90,6,0,6,0.00
2012-6-8,85.7,74.6,61.9,68.4,58.7,53.7,87,60,38,29.99,29.91,5,0,5,0.00
2012-6-9,88.7,75.0,60.7,69.5,60.6,53.8,83,63,42,30.02,29.92,5,0,5,0.00
2012-6-10,81.9,74.6,66.8,68.3,63.9,59.1,84,70,56,30.07,29.99,4,0,4,0.00
2012-6-11,76.7,73.5,70.6,73.3,69.7,66.3,90,88,84,30.06,29.91,7,0,7,0.12
2012-6-12,81.0,74.5,68.0,75.8,70.8,64.0,92,88,81,29.94,29.78,9,0,9,0.22
2012-6-13,85.7,76.7,67.0,74.4,69.3,64.2,93,79,63,29.92,29.82,4,0,7,0.02
2012-6-14,81.5,75.6,66.2,67.7,61.8,58.2,84,63,49,30.08,29.92,8,1,8,0.00
2012-6-15,82.8,74.8,66.4,67.4,61.6,56.9,82,65,47,30.15,30.04,8,1,8,0.00
2012-6-16,83.2,74.0,63.4,63.2,57.6,54.9,80,58,41,30.19,30.05,8,1,8,0.00
2012-6-17,83.9,74.0,61.2,67.9,60.9,53.7,81,65,50,30.11,29.93,4,0,4,0.00
2012-6-18,87.1,77.1,67.0,71.4,65.9,60.7,82,69,56,30.02,29.94,3,0,3,0.00
2012-6-19,91.3,80.3,68.4,71.9,67.1,61.7,84,65,49,30.10,30.00,4,0,4,0.00
2012-6-20,93.6,82.7,70.4,74.9,69.4,64.1,86,66,48,30.11,29.97,4,0,4,0.00
2012-6-21,94.7,83.5,72.4,75.7,71.1,66.4,86,68,51,30.01,29.84,4,0,4,0.00
2012-6-25,85.1,83.0,80.1,73.1,71.9,70.6,74,69,67,29.65,29.63,0,0,0,0.02
2012-6-26,83.5,75.7,65.9,69.0,58.3,51.0,84,57,38,29.81,29.66,6,1,6,0.00
2012-6-27,85.9,79.2,59.4,63.0,55.8,52.2,81,46,35,29.92,29.80,7,1,7,0.00
2012-6-28,94.9,83.2,63.0,69.4,63.4,55.8,84,54,38,29.96,29.82,4,0,4,0.00
2012-6-29,102.6,86.7,68.8,76.5,67.5,60.9,82,55,33,29.83,29.71,4,0,4,0.12
2012-6-30,103.1,89.9,75.8,74.2,69.4,64.2,71,53,35,29.85,29.75,5,0,5,0.00
2012-7-1,103.7,90.0,76.5,80.8,71.8,63.5,80,58,34,29.98,29.79,7,1,7,0.03
2012-7-2,95.0,80.0,69.8,76.5,70.1,64.5,88,73,55,30.09,29.87,5,0,5,0.21
2012-7-3,96.5,85.1,73.4,78.6,72.4,67.7,89,67,47,29.95,29.83,4,0,4,0.00
2012-7-4,96.8,83.9,72.9,74.9,70.1,65.1,81,64,43,29.95,29.84,6,0,6,0.00
2012-7-5,99.9,86.3,74.0,78.1,70.8,64.7,87,62,42,29.90,29.79,5,0,5,0.00
2012-7-6,96.7,84.9,72.4,73.0,68.8,64.7,81,60,42,29.91,29.83,5,0,5,0.00
2012-7-7,82.3,79.2,76.9,70.4,69.6,68.7,77,72,67,29.92,29.89,0,0,0,0.00
2012-7-8,84.6,82.1,79.4,77.1,75.3,73.6,83,80,76,29.83,29.77,1,0,1,0.15
2012-7-9,96.7,83.0,74.9,79.8,73.7,69.2,90,75,50,29.89,29.78,6,0,6,0.01
2012-7-10,86.2,76.0,73.8,75.6,70.9,69.4,89,84,70,29.96,29.85,4,0,4,0.16
2012-7-11,80.3,75.9,71.6,73.6,71.0,67.9,90,85,77,30.04,29.94,3,0,3,0.12
2012-7-12,78.8,73.7,69.3,72.2,68.4,65.1,88,84,78,30.08,30.02,2,0,2,0.00
2012-7-13,85.3,76.6,71.1,77.4,71.5,67.3,89,84,73,30.11,30.03,2,0,2,0.14
2012-7-14,91.3,81.3,75.1,77.2,73.6,71.3,90,78,61,30.14,30.02,2,0,2,0.00
2012-7-15,91.8,83.1,74.3,77.8,73.5,69.9,88,74,57,30.14,29.99,2,0,2,0.00
2012-7-16,91.4,79.6,72.9,77.7,71.4,67.8,87,77,55,30.02,29.87,3,0,3,0.06
2012-7-17,91.4,81.2,70.9,79.9,73.1,67.1,91,77,62,29.92,29.82,3,0,3,0.00
2012-7-18,94.0,83.3,74.0,79.1,73.4,69.4,88,73,59,29.93,29.83,1,0,1,0.00
2012-7-19,94.0,81.9,72.2,77.6,72.5,66.8,87,74,56,29.97,29.86,2,0,2,0.00
2012-7-20,87.8,77.1,73.4,79.6,72.6,69.7,91,86,75,29.90,29.82,3,0,3,0.00
2012-7-21,89.8,78.5,72.7,80.1,73.6,69.3,93,85,68,30.00,29.87,4,0,4,0.02
2012-7-22,91.1,82.1,73.4,79.8,74.9,70.0,92,79,63,30.09,29.99,3,0,3,0.00
2012-7-23,93.8,83.4,74.5,79.9,75.0,70.7,90,76,59,30.12,29.96,3,0,3,0.01
2012-7-24,95.9,84.2,75.6,80.1,74.5,70.4,90,73,57,29.98,29.77,7,0,7,0.00
2012-7-25,88.7,80.7,73.6,78.0,73.1,68.8,87,78,67,29.91,29.81,5,0,5,0.00
2012-7-26,95.6,85.5,76.0,81.6,75.3,71.2,89,73,57,29.85,29.72,3,0,3,0.00
2012-7-27,97.2,86.0,76.5,80.1,74.0,69.5,85,68,52,29.87,29.76,4,0,4,0.00
2012-7-28,96.7,82.4,76.0,79.3,72.6,69.4,84,73,50,29.93,29.87,4,0,4,0.00
2012-8-13,73.3,72.6,71.8,64.9,64.6,64.0,77,76,75,29.88,29.87,0,0,0,0.00
2012-8-14,90.7,77.0,68.8,75.3,68.4,63.5,86,76,59,29.90,29.78,3,0,3,0.00
2012-8-15,85.5,77.5,71.1,75.9,70.9,66.0,89,80,67,29.90,29.80,4,0,4,0.00
2012-8-16,89.8,74.9,65.3,72.3,66.1,61.8,91,75,55,29.97,29.86,4,0,4,0.00
2012-8-17,88.4,75.1,66.6,75.3,67.6,62.1,89,78,62,29.93,29.75,3,0,4,0.00
2012-8-19,77.6,74.1,70.2,72.0,68.9,66.0,87,84,81,29.81,29.74,4,0,4,0.00
2012-8-20,78.1,72.3,68.2,70.9,67.5,64.7,91,85,75,29.90,29.77,3,0,3,0.00
2012-8-21,80.8,74.4,69.5,72.5,68.1,64.7,90,81,69,29.99,29.88,4,0,4,0.00
2012-8-22,81.2,73.2,68.2,71.7,67.5,64.2,89,83,71,30.04,29.95,5,0,5,0.00
2012-8-23,83.0,73.8,66.6,71.2,66.8,62.7,88,79,62,30.07,29.99,3,0,3,0.00
2012-8-24,84.8,74.8,66.2,69.2,64.1,59.8,89,71,48,30.07,29.99,6,0,6,0.00
2012-8-25,84.6,72.6,62.3,64.5,60.3,57.1,87,67,47,30.08,30.00,9,0,9,0.00
2012-8-26,86.6,74.1,63.0,69.6,63.1,57.4,86,70,50,30.11,30.00,4,0,4,0.00
2012-8-27,86.8,76.6,67.1,73.9,67.6,62.1,86,74,58,30.08,29.93,7,0,7,0.00
2012-8-28,84.1,78.0,73.3,76.7,72.1,68.3,89,82,75,29.96,29.85,5,0,5,0.00
2012-8-29,85.3,78.0,73.8,76.7,72.6,70.2,90,84,73,29.92,29.86,4,0,4,0.00
2012-8-30,83.9,78.0,72.9,76.3,72.8,69.3,91,84,76,30.08,29.92,5,0,5,0.00
2012-8-31,91.4,80.5,72.7,78.0,73.1,68.9,92,79,61,30.15,30.01,3,0,3,0.00
2012-9-1,93.6,79.5,73.1,77.7,71.8,68.7,89,78,57,30.07,29.96,9,0,9,0.00
2012-9-2,93.6,80.6,73.4,78.0,72.3,69.7,91,77,53,29.98,29.83,4,0,4,0.00
2012-9-3,90.4,78.2,73.6,77.4,71.9,69.2,89,82,62,29.94,29.84,6,0,6,0.00
2012-9-4,80.6,75.4,73.1,76.6,71.8,69.7,91,89,83,29.91,29.82,10,0,10,0.00
2012-9-5,82.3,75.9,72.7,76.3,71.9,69.7,93,87,77,29.88,29.78,2,0,5,0.00
2012-9-6,83.9,76.6,71.5,77.6,72.8,68.4,92,88,79,29.87,29.79,3,0,3,0.00
2012-9-7,85.9,77.5,71.5,75.2,71.3,68.7,92,82,66,29.90,29.76,4,0,4,0.00
2012-9-8,88.6,78.6,70.0,77.8,72.1,66.2,91,81,67,29.80,29.60,4,0,4,0.00
2012-9-9,77.2,71.8,63.7,60.8,58.6,56.9,80,64,52,29.92,29.81,4,0,4,0.00
2012-9-10,78.1,68.5,58.3,62.9,58.5,53.8,88,72,52,30.05,29.91,4,0,4,0.00
2012-9-11,77.4,69.7,65.7,62.4,60.3,58.3,80,72,58,30.21,30.05,5,0,5,0.00
2012-9-12,78.1,69.1,60.8,63.6,59.1,55.9,86,72,53,30.27,30.16,6,0,6,0.00
2012-9-13,77.9,67.9,58.0,63.1,58.4,52.8,85,73,54,30.26,30.14,5,0,5,0.00
2012-9-14,79.6,67.9,60.8,67.0,60.0,55.7,85,77,56,30.18,30.06,3,0,3,0.00
2012-9-15,83.9,74.1,63.7,66.8,63.4,58.4,87,71,52,30.10,29.99,1,0,1,0.00
2012-9-16,73.1,70.2,67.9,68.1,64.6,62.4,86,82,77,30.05,29.96,3,0,3,0.00
2012-9-17,75.8,69.9,66.1,71.2,66.3,62.7,91,88,85,30.01,29.79,4,0,4,0.00
2012-9-18,75.2,72.7,68.9,72.5,69.2,65.3,92,89,87,29.79,29.62,5,0,5,0.00
2012-9-19,74.2,67.5,62.3,65.7,59.3,56.2,90,76,61,30.03,29.74,8,1,8,0.00
2012-9-20,77.4,66.0,57.4,62.1,57.4,52.9,88,75,57,30.08,29.95,5,0,5,0.00
2012-9-23,80.3,72.6,62.1,56.7,53.4,50.6,67,52,41,30.03,29.96,4,0,4,0.00
2012-9-24,72.4,62.7,54.5,51.0,46.4,42.4,73,56,40,30.14,30.03,8,1,8,0.00
2012-9-25,76.9,63.5,50.9,60.6,53.4,45.0,85,71,55,30.14,30.07,5,0,5,0.00
2012-9-26,81.0,68.1,57.2,64.4,58.4,51.9,86,72,54,30.14,30.04,5,0,5,0.00
2012-9-27,82.4,69.4,58.1,66.2,59.0,52.8,89,71,47,30.11,29.99,3,0,3,0.00
2012-9-28,84.1,70.7,60.8,67.8,61.4,55.7,88,73,55,30.01,29.87,4,0,4,0.00
2012-9-29,71.6,67.9,65.9,66.5,63.3,60.6,88,85,77,29.92,29.76,4,0,4,0.00
2012-9-30,72.2,66.1,60.1,62.2,59.2,56.3,89,79,63,29.82,29.72,2,0,5,0.00
2012-10-1,66.8,63.1,60.1,63.6,59.4,56.3,93,88,82,29.77,29.68,7,1,7,0.00
2012-10-2,79.4,72.7,66.1,74.3,69.3,63.4,96,89,83,29.85,29.64,6,0,6,0.00
2012-10-3,80.6,72.2,67.9,77.8,67.3,64.9,99,85,73,30.08,29.85,3,0,3,0.00
2012-10-4,87.7,71.5,66.8,79.3,66.5,62.7,99,85,64,30.12,30.03,3,0,3,0.00
2012-10-5,99.9,78.7,66.4,95.6,71.1,49.0,99,80,33,30.09,29.89,3,0,3,0.00
2012-10-6,138.1,96.2,77.8,99.9,80.3,32.1,99,67,13,29.91,29.76,4,0,4,0.00
2012-10-9,95.0,70.9,27.0,94.7,70.6,26.7,99,99,99,30.04,29.99,0,0,0,0.00
2012-10-10,95.6,50.0,-39.2,95.3,47.9,-43.8,99,92,76,29.99,29.93,1,0,1,0.00
2012-10-11,138.4,36.8,-39.2,95.0,20.5,-51.7,99,66,1,30.17,30.00,2,0,2,0.00
2012-10-12,138.4,5.7,-39.2,94.7,-8.1,-93.2,99,66,1,30.17,30.04,3,0,3,0.00
2012-10-13,0.0,-19.1,-39.6,0.0,-24.0,-55.6,99,73,37,30.33,30.16,0,0,0,0.00
2012-10-14,0.0,-38.5,-39.6,0.0,-46.5,-48.8,99,62,57,30.02,29.88,0,0,0,0.00
2012-10-15,0.0,-31.8,-39.6,0.0,-37.4,-50.7,99,72,50,29.89,29.60,0,0,0,0.00
2012-11-10,68.8,56.5,47.3,44.1,39.6,37.3,68,54,39,30.27,30.19,0,0,0,0.00
2012-11-11,70.9,55.7,41.0,53.9,44.3,34.3,81,67,52,30.37,30.27,0,0,0,0.00
2012-11-12,72.0,63.7,56.0,62.1,56.6,48.3,84,78,70,30.29,30.07,0,0,0,0.00
2012-11-13,65.0,51.9,42.8,59.1,43.6,35.1,85,74,50,30.29,30.06,0,0,0,0.00
2012-11-14,52.7,45.6,38.2,35.8,33.7,30.6,76,64,52,30.37,30.22,0,0,0,0.00
2012-11-15,47.9,42.7,38.2,37.8,34.6,32.3,81,73,60,30.25,30.13,0,0,0,0.00
2012-11-16,56.2,44.3,34.6,42.4,36.1,29.9,86,74,56,30.27,30.16,0,0,0,0.00
2012-11-17,56.9,47.4,37.4,36.3,33.1,29.8,81,60,41,30.36,30.27,0,0,0,0.00
2012-11-18,58.3,53.1,46.3,45.5,40.7,30.3,69,63,50,30.33,30.23,0,0,0,0.00
2012-11-19,62.5,55.4,49.7,49.7,44.7,41.7,76,67,61,30.24,30.09,0,0,0,0.00
2012-11-20,60.5,50.5,43.6,47.9,42.4,38.1,83,74,61,30.09,29.96,0,0,0,0.00
2012-11-21,62.1,49.1,39.6,46.6,39.2,34.1,87,70,47,30.09,29.98,0,0,0,0.00
2012-11-22,62.5,48.3,37.3,41.0,35.9,31.1,82,64,41,30.16,30.06,0,0,0,0.00
2012-11-23,65.5,49.8,35.6,47.4,38.4,29.1,83,66,49,30.07,29.81,0,0,0,0.00
2012-11-24,55.3,46.8,37.6,36.8,28.9,23.1,66,51,33,30.01,29.85,0,0,0,0.00
2012-11-25,54.4,39.6,29.5,32.2,25.6,20.2,71,58,41,30.10,29.93,0,0,0,0.00
2012-11-26,63.5,46.4,32.0,36.4,31.1,24.8,79,58,32,30.11,29.99,0,0,0,0.00
2012-11-27,59.4,51.4,43.4,48.3,40.8,32.4,80,68,52,30.12,29.99,0,0,0,0.00
2012-11-28,55.4,47.3,38.2,43.0,37.8,31.0,83,70,51,30.28,30.12,0,0,0,0.00
2012-11-29,56.7,46.8,33.1,42.6,36.6,27.6,84,68,58,30.37,30.25,0,0,0,0.00
2012-11-30,61.6,45.8,33.7,46.6,37.4,28.4,84,73,58,30.29,30.17,0,0,0,0.00
2012-12-1,68.2,49.2,38.3,53.7,41.1,32.9,87,74,58,30.31,30.20,0,0,0,0.00
2012-12-2,68.0,53.9,43.2,55.9,46.2,37.7,86,76,64,30.29,30.15,0,0,0,0.00
2012-12-3,71.8,57.2,46.4,58.2,48.6,41.3,89,74,58,30.22,30.12,0,0,0,0.00
2012-12-4,71.6,58.5,47.9,59.2,50.3,42.3,86,75,59,30.22,30.08,0,0,0,0.00
2012-12-5,69.3,60.0,52.9,59.5,52.8,45.2,87,77,67,30.09,30.01,0,0,0,0.00
2012-12-6,52.9,50.8,47.9,45.7,38.8,35.3,80,64,57,30.19,30.08,0,0,0,0.00
2012-12-7,55.4,52.4,49.7,48.0,42.5,36.9,81,69,60,30.10,29.91,0,0,0,0.00
2012-12-8,67.9,58.7,51.7,56.5,51.2,46.4,84,76,67,29.96,29.88,0,0,0,0.00
2012-12-9,67.0,59.5,55.3,62.5,55.1,49.9,90,85,79,30.02,29.88,0,0,0,0.00
2012-12-10,68.4,61.7,55.6,61.7,57.3,51.8,91,86,75,29.88,29.61,0,0,0,0.00
2012-12-11,61.7,56.2,47.2,57.9,47.7,34.4,89,74,61,30.04,29.63,0,0,0,0.00
2012-12-12,47.2,45.9,44.6,34.8,33.7,32.9,63,62,61,30.06,30.03,0,0,0,0.00
2012-12-15,58.7,58.6,58.3,39.4,39.2,38.4,49,48,48,30.04,30.02,0,0,0,0.00
2012-12-16,59.8,57.0,51.7,54.6,52.5,46.4,87,85,82,29.96,29.81,0,0,0,0.00
2012-12-17,58.9,57.2,55.1,55.6,53.7,51.6,89,88,87,29.81,29.57,0,0,0,0.00
2012-12-18,60.5,54.7,41.9,54.6,46.1,35.1,88,74,48,29.84,29.56,0,0,0,0.00
2012-12-19,64.6,48.9,37.1,46.8,39.3,32.0,87,71,51,30.00,29.82,0,0,0,0.00
2012-12-20,56.7,49.1,41.4,53.3,43.5,36.3,89,81,72,30.00,29.46,0,0,0,0.00
2012-12-21,48.8,43.6,38.7,43.2,31.9,26.7,81,64,54,29.79,29.51,0,0,0,0.00
2012-12-22,53.5,41.5,32.4,31.3,27.0,23.0,72,57,41,30.02,29.79,0,0,0,0.00
2012-12-23,55.3,41.1,29.7,34.6,29.0,22.5,78,63,44,30.05,29.92,0,0,0,0.00
2012-12-24,50.8,48.3,45.7,46.6,40.9,35.7,87,76,63,29.94,29.77,0,0,0,0.00
2012-12-25,57.6,52.3,48.6,48.2,46.3,44.3,88,80,68,29.99,29.82,0,0,0,0.00
2012-12-26,55.6,49.8,42.8,50.5,45.0,36.1,91,84,76,29.87,29.35,0,0,0,0.00
2012-12-27,51.7,43.0,34.6,39.0,34.6,29.9,84,72,59,29.96,29.60,0,0,0,0.00
2012-12-28,45.4,39.7,32.8,34.2,31.4,27.0,81,72,64,30.06,29.87,0,0,0,0.00
2012-12-29,51.7,44.8,38.7,45.2,37.5,29.8,87,76,63,29.94,29.63,0,0,0,0.00
2012-12-30,47.5,37.8,31.3,30.7,27.9,24.7,80,68,51,30.29,29.93,0,0,0,0.00
2012-12-31,55.1,42.5,30.8,37.7,31.6,24.8,80,66,50,30.27,30.02,0,0,0,0.00
2013-1-1,52.7,50.1,45.7,48.1,42.3,34.6,86,75,61,30.02,29.83,0,0,0,0.00